• în Republica Moldova
  • Lista ţărilor
  • Pe 7 zile
  • Temperatura apei
  • Hartă satelitară
  • Meteo pe hartă
  • Widget-uri
  • user-avatar
    Intrare

    Meteo pe oră la Djelfa

    Astăzi, 23 Iunie, Vineri

    Timp Temperatura Precipitaţii Vânt Presiune Umiditate
    00:00 +23°C° 0 mm 2 m/s 668 mmHg 36%
    01:00 +23°C° 0 mm 1 m/s 668 mmHg 39%
    02:00 +22°C° 0 mm 1 m/s 668 mmHg 41%
    03:00 +22°C° 0 mm 1 m/s 668 mmHg 43%
    04:00 +22°C° 0 mm 1 m/s 668 mmHg 42%
    05:00 +22°C° 0 mm 1 m/s 669 mmHg 41%
    06:00 +23°C° 0 mm 1 m/s 669 mmHg 42%
    07:00 +24°C° 0 mm 1 m/s 670 mmHg 39%
    08:00 +26°C° 0 mm 1 m/s 670 mmHg 37%
    09:00 +27°C° 0 mm 1 m/s 671 mmHg 34%
    10:00 +28°C° 0 mm 1 m/s 671 mmHg 30%
    11:00 +29°C° 0 mm 1 m/s 671 mmHg 25%
    12:00 +31°C° 0 mm 1 m/s 671 mmHg 21%
    13:00 +31°C° 0 mm 1 m/s 671 mmHg 19%
    14:00 +32°C° 0 mm 2 m/s 670 mmHg 17%
    15:00 +34°C° 0 mm 2 m/s 670 mmHg 15%
    16:00 +32°C° 0 mm 2 m/s 670 mmHg 15%
    17:00 +32°C° 0 mm 2 m/s 670 mmHg 14%
    18:00 +33°C° 0 mm 3 m/s 670 mmHg 14%
    19:00 +31°C° 0 mm 3 m/s 670 mmHg 17%
    20:00 +29°C° 0 mm 3 m/s 670 mmHg 20%
    21:00 +28°C° 0 mm 3 m/s 670 mmHg 23%
    22:00 +27°C° 0 mm 2 m/s 670 mmHg 27%
    23:00 +26°C° 0 mm 1 m/s 670 mmHg 30%

    Mâine, 24 Iunie, Sâmbătă

    Timp Temperatura Precipitaţii Vânt Presiune Umiditate
    00:00 +26°C° 0 mm 1 m/s 670 mmHg 34%
    01:00 +25°C° 0 mm 1 m/s 669 mmHg 35%
    02:00 +25°C° 0 mm 1 m/s 669 mmHg 36%
    03:00 +24°C° 0 mm 1 m/s 669 mmHg 38%
    04:00 +24°C° 0 mm 1 m/s 669 mmHg 37%
    05:00 +25°C° 0 mm 1 m/s 669 mmHg 35%
    06:00 +25°C° 0 mm 1 m/s 670 mmHg 34%
    07:00 +26°C° 0 mm 1 m/s 670 mmHg 30%
    08:00 +28°C° 0 mm 1 m/s 670 mmHg 25%
    09:00 +29°C° 0 mm 2 m/s 671 mmHg 20%
    10:00 +30°C° 0 mm 2 m/s 671 mmHg 18%
    11:00 +31°C° 0 mm 2 m/s 671 mmHg 15%
    12:00 +32°C° 0 mm 2 m/s 670 mmHg 13%
    13:00 +34°C° 0 mm 2 m/s 670 mmHg 12%
    14:00 +34°C° 0 mm 2 m/s 670 mmHg 11%
    15:00 +35°C° 0 mm 2 m/s 669 mmHg 10%
    16:00 +35°C° 0 mm 2 m/s 669 mmHg 10%
    17:00 +34°C° 0 mm 2 m/s 669 mmHg 9%
    18:00 +34°C° 0 mm 2 m/s 669 mmHg 9%
    19:00 +32°C° 0 mm 2 m/s 669 mmHg 11%
    20:00 +31°C° 0 mm 2 m/s 669 mmHg 12%
    21:00 +30°C° 0 mm 2 m/s 669 mmHg 13%
    22:00 +29°C° 0 mm 2 m/s 669 mmHg 16%
    23:00 +28°C° 0 mm 2 m/s 669 mmHg 19%

    Poimâine, 25 Iunie, Duminică

    Timp Temperatura Precipitaţii Vânt Presiune Umiditate
    00:00 +27°C° 0 mm 2 m/s 668 mmHg 22%
    01:00 +26°C° 0 mm 2 m/s 668 mmHg 24%
    02:00 +26°C° 0 mm 2 m/s 668 mmHg 27%
    03:00 +25°C° 0 mm 2 m/s 667 mmHg 30%
    04:00 +25°C° 0 mm 2 m/s 667 mmHg 30%
    05:00 +26°C° 0 mm 3 m/s 667 mmHg 31%
    06:00 +26°C° 0 mm 3 m/s 667 mmHg 31%
    07:00 +28°C° 0 mm 4 m/s 668 mmHg 27%
    08:00 +30°C° 0 mm 4 m/s 668 mmHg 24%
    09:00 +33°C° 0 mm 5 m/s 669 mmHg 20%
    10:00 +34°C° 0 mm 4 m/s 669 mmHg 18%
    11:00 +35°C° 0 mm 3 m/s 669 mmHg 16%
    12:00 +36°C° 0 mm 3 m/s 669 mmHg 14%
    13:00 +36°C° 0 mm 2 m/s 668 mmHg 13%
    14:00 +37°C° 0 mm 2 m/s 668 mmHg 12%
    15:00 +37°C° 0 mm 2 m/s 667 mmHg 12%
    16:00 +37°C° 0 mm 2 m/s 667 mmHg 12%
    17:00 +37°C° 0 mm 3 m/s 667 mmHg 12%
    18:00 +37°C° 0 mm 3 m/s 667 mmHg 12%
    19:00 +35°C° 0 mm 4 m/s 667 mmHg 14%
    20:00 +34°C° 0 mm 4 m/s 667 mmHg 16%
    21:00 +33°C° 0 mm 5 m/s 667 mmHg 17%
    22:00 +32°C° 0 mm 5 m/s 667 mmHg 18%
    23:00 +30°C° 0 mm 6 m/s 667 mmHg 19%

    26 Iunie, Luni

    Timp Temperatura Precipitaţii Vânt Presiune Umiditate
    00:00 +30°C° 0 mm 6 m/s 667 mmHg 21%
    01:00 +29°C° 0 mm 6 m/s 666 mmHg 22%
    02:00 +28°C° 0 mm 6 m/s 666 mmHg 23%
    03:00 +28°C° 0 mm 5 m/s 666 mmHg 25%
    04:00 +28°C° 0 mm 5 m/s 666 mmHg 25%
    05:00 +28°C° 0 mm 5 m/s 666 mmHg 25%
    06:00 +28°C° 0 mm 4 m/s 666 mmHg 25%
    07:00 +30°C° 0 mm 5 m/s 667 mmHg 22%
    08:00 +33°C° 0 mm 6 m/s 667 mmHg 19%
    09:00 +35°C° 0 mm 7 m/s 668 mmHg 16%
    10:00 +36°C° 0 mm 6 m/s 668 mmHg 14%
    11:00 +38°C° 0 mm 6 m/s 668 mmHg 13%
    12:00 +39°C° 0 mm 5 m/s 668 mmHg 12%
    13:00 +40°C° 0 mm 5 m/s 667 mmHg 12%
    14:00 +40°C° 0 mm 4 m/s 667 mmHg 11%
    15:00 +40°C° 0 mm 4 m/s 667 mmHg 11%
    16:00 +38°C° 0 mm 4 m/s 666 mmHg 12%
    17:00 +38°C° 0 mm 4 m/s 666 mmHg 13%
    18:00 +37°C° 0 mm 4 m/s 666 mmHg 13%
    19:00 +36°C° 0 mm 4 m/s 666 mmHg 15%
    20:00 +35°C° 0 mm 3 m/s 667 mmHg 16%
    21:00 +34°C° 0 mm 3 m/s 667 mmHg 17%
    22:00 +33°C° 0 mm 3 m/s 667 mmHg 18%
    23:00 +32°C° 0 mm 4 m/s 666 mmHg 19%

    27 Iunie, Marţi

    Timp Temperatura Precipitaţii Vânt Presiune Umiditate
    00:00 +30°C° 0 mm 4 m/s 666 mmHg 21%
    01:00 +29°C° 0 mm 4 m/s 666 mmHg 21%
    02:00 +29°C° 0 mm 4 m/s 666 mmHg 22%
    03:00 +28°C° 0 mm 4 m/s 665 mmHg 23%
    04:00 +28°C° 0 mm 3 m/s 666 mmHg 24%
    05:00 +28°C° 0 mm 3 m/s 666 mmHg 26%
    06:00 +28°C° 0 mm 3 m/s 666 mmHg 27%
    07:00 +30°C° 0 mm 3 m/s 667 mmHg 24%
    08:00 +33°C° 0 mm 3 m/s 667 mmHg 21%
    09:00 +35°C° 0 mm 4 m/s 668 mmHg 18%
    10:00 +36°C° 0 mm 4 m/s 668 mmHg 16%
    11:00 +37°C° 0 mm 4 m/s 668 mmHg 14%
    12:00 +40°C° 0 mm 4 m/s 667 mmHg 12%
    13:00 +40°C° 0 mm 5 m/s 667 mmHg 12%
    14:00 +40°C° 0 mm 6 m/s 667 mmHg 11%
    15:00 +40°C° 0 mm 7 m/s 667 mmHg 11%
    16:00 +40°C° 0 mm 7 m/s 666 mmHg 12%
    17:00 +39°C° 0 mm 7 m/s 666 mmHg 12%
    18:00 +38°C° 0 mm 7 m/s 666 mmHg 13%
    19:00 +36°C° 0 mm 7 m/s 666 mmHg 14%
    20:00 +35°C° 0 mm 6 m/s 666 mmHg 15%
    21:00 +34°C° 0 mm 5 m/s 666 mmHg 16%
    22:00 +33°C° 0 mm 5 m/s 666 mmHg 16%
    23:00 +32°C° 0 mm 4 m/s 666 mmHg 17%

    28 Iunie, Miercuri

    Timp Temperatura Precipitaţii Vânt Presiune Umiditate
    00:00 +30°C° 0 mm 4 m/s 665 mmHg 18%
    01:00 +29°C° 0 mm 4 m/s 665 mmHg 19%
    02:00 +28°C° 0 mm 3 m/s 665 mmHg 20%
    03:00 +28°C° 0 mm 3 m/s 664 mmHg 21%
    04:00 +27°C° 0 mm 3 m/s 665 mmHg 22%
    05:00 +27°C° 0 mm 2 m/s 665 mmHg 23%
    06:00 +27°C° 0 mm 2 m/s 665 mmHg 24%
    07:00 +29°C° 0 mm 3 m/s 665 mmHg 21%
    08:00 +32°C° 0 mm 5 m/s 666 mmHg 18%
    09:00 +34°C° 0 mm 6 m/s 666 mmHg 15%
    10:00 +35°C° 0 mm 6 m/s 666 mmHg 13%
    11:00 +38°C° 0 mm 6 m/s 666 mmHg 12%
    12:00 +39°C° 0 mm 7 m/s 666 mmHg 10%
    13:00 +39°C° 0 mm 7 m/s 666 mmHg 10%
    14:00 +40°C° 0 mm 7 m/s 666 mmHg 10%
    15:00 +40°C° 0 mm 7 m/s 665 mmHg 10%
    16:00 +39°C° 0 mm 7 m/s 665 mmHg 11%
    17:00 +38°C° 0 mm 6 m/s 665 mmHg 13%
    18:00 +36°C° 0 mm 6 m/s 665 mmHg 14%
    19:00 +34°C° 0 mm 7 m/s 665 mmHg 19%
    20:00 +30°C° 0 mm 7 m/s 665 mmHg 23%
    21:00 +28°C° 0 mm 7 m/s 665 mmHg 27%
    22:00 +27°C° 0 mm 6 m/s 665 mmHg 28%
    23:00 +26°C° 0 mm 6 m/s 664 mmHg 28%
    Arată mai mult